| time (UTC) | temp C | wind direction | speed KPH | gust KPH | rain 1hr cm | rain 24hr cm | rain mn cm | humidity % | barometer mb |
| 20260506134551 | 20 | 211 | 0.0 | 0.0 | 0.00 | 0.00 | 0.00 | 94 | 1016.3 |
| 20260506134046 | 19 | 337 | 0.0 | 0.0 | 0.00 | 0.00 | 0.00 | 95 | 1016.5 |
| 20260506133544 | 19 | 257 | 0.0 | 0.0 | 0.00 | 0.00 | 0.00 | 95 | 1016.5 |
| 20260506133041 | 19 | 214 | 0.0 | 0.0 | 0.00 | 0.00 | 0.00 | 95 | 1016.7 |
| 20260506132538 | 18 | 112 | 0.0 | 0.0 | 0.00 | 0.00 | 0.00 | 95 | 1016.3 |
| 20260506132035 | 18 | 154 | 0.0 | 0.0 | 0.00 | 0.00 | 0.00 | 96 | 1016.4 |
| 20260506131532 | 18 | 106 | 0.0 | 0.0 | 0.00 | 0.00 | 0.00 | 96 | 1016.4 |
| 20260506131028 | 18 | 179 | 0.0 | 0.0 | 0.00 | 0.00 | 0.00 | 96 | 1016.5 |
| 20260506130525 | 18 | 136 | 0.0 | 0.0 | 0.00 | 0.00 | 0.00 | 96 | 1016.5 |
| 20260506130023 | 18 | 136 | 0.0 | 0.0 | 0.00 | 0.00 | 0.00 | 96 | 1016.5 |
| 20260506125521 | 18 | 169 | 0.0 | 0.0 | 0.00 | 0.00 | 0.00 | 96 | 1016.5 |
| 20260506125018 | 18 | 128 | 0.0 | 0.0 | 0.00 | 0.00 | 0.00 | 97 | 1016.5 |
| 20260506124516 | 18 | 127 | 0.0 | 0.0 | 0.00 | 0.00 | 0.00 | 97 | 1016.1 |
| 20260506124014 | 18 | 297 | 0.0 | 0.0 | 0.00 | 0.00 | 0.00 | 97 | 1016.2 |
| 20260506123512 | 18 | 359 | 0.0 | 0.0 | 0.00 | 0.00 | 0.00 | 97 | 1016.5 |
| 20260506123009 | 17 | 346 | 0.0 | 0.0 | 0.00 | 0.00 | 0.00 | 97 | 1016.2 |
| 20260506122506 | 17 | 1 | 0.0 | 0.0 | 0.00 | 0.00 | 0.00 | 97 | 1016.2 |
| 20260506122004 | 17 | 355 | 0.0 | 0.0 | 0.00 | 0.00 | 0.00 | 97 | 1016.0 |
| 20260506121501 | 17 | 353 | 0.0 | 0.0 | 0.00 | 0.00 | 0.00 | 98 | 1016.3 |
| 20260506120957 | 17 | 356 | 0.0 | 0.0 | 0.00 | 0.00 | 0.00 | 98 | 1016.0 |
| 20260506120455 | 17 | 356 | 0.0 | 0.0 | 0.00 | 0.00 | 0.00 | 98 | 1015.8 |
| 20260506115952 | 17 | 348 | 0.0 | 0.0 | 0.00 | 0.00 | 0.00 | 99 | 1015.9 |
| 20260506115450 | 16 | 350 | 0.0 | 0.0 | 0.00 | 0.00 | 0.00 | 99 | 1015.5 |
| 20260506114948 | 16 | 355 | 0.0 | 0.0 | 0.00 | 0.00 | 0.00 | 99 | 1015.5 |
| 20260506114446 | 16 | 352 | 0.0 | 0.0 | 0.00 | 0.00 | 0.00 | 99 | 1015.5 |
| 20260506113944 | 16 | 349 | 0.0 | 0.0 | 0.00 | 0.00 | 0.00 | 99 | 1015.5 |
| 20260506113442 | 16 | 347 | 0.0 | 0.0 | 0.00 | 0.00 | 0.00 | 99 | 1015.4 |
| 20260506112938 | 15 | 349 | 0.0 | 0.0 | 0.00 | 0.00 | 0.00 | 99 | 1015.3 |
| 20260506112436 | 15 | 347 | 0.0 | 0.0 | 0.00 | 0.00 | 0.00 | 99 | 1015.1 |
| 20260506111932 | 15 | 352 | 0.0 | 0.0 | 0.00 | 0.00 | 0.00 | 99 | 1015.1 |
| 20260506111431 | 15 | 352 | 0.0 | 0.0 | 0.00 | 0.00 | 0.00 | 99 | 1015.0 |
| 20260506110927 | 15 | 350 | 0.0 | 0.0 | 0.00 | 0.00 | 0.00 | 99 | 1014.8 |
| 20260506110425 | 15 | 349 | 0.0 | 0.0 | 0.00 | 0.00 | 0.00 | 99 | 1015.0 |
| 20260506105921 | 15 | 351 | 0.0 | 0.0 | 0.00 | 0.00 | 0.00 | 99 | 1014.8 |
| 20260506105418 | 15 | 352 | 0.0 | 0.0 | 0.00 | 0.00 | 0.00 | 99 | 1014.5 |
| 20260506104915 | 15 | 350 | 0.0 | 0.0 | 0.00 | 0.00 | 0.00 | 99 | 1014.6 |
| 20260506104413 | 15 | 351 | 0.0 | 0.0 | 0.00 | 0.00 | 0.00 | 99 | 1014.4 |
| 20260506103911 | 15 | 349 | 0.0 | 0.0 | 0.00 | 0.00 | 0.00 | 99 | 1014.8 |
| 20260506103408 | 15 | 349 | 0.0 | 0.0 | 0.00 | 0.00 | 0.00 | 99 | 1014.6 |
| 20260506102905 | 15 | 351 | 0.0 | 0.0 | 0.00 | 0.00 | 0.00 | 99 | 1014.5 |
| 20260506102403 | 15 | 352 | 0.0 | 0.0 | 0.00 | 0.00 | 0.00 | 99 | 1014.3 |
| 20260506101900 | 15 | 350 | 0.0 | 0.0 | 0.00 | 0.00 | 0.00 | 99 | 1014.1 |
| 20260506101356 | 15 | 352 | 0.0 | 0.0 | 0.00 | 0.00 | 0.00 | 99 | 1014.0 |
| 20260506100854 | 15 | 350 | 0.0 | 0.0 | 0.00 | 0.00 | 0.00 | 99 | 1014.2 |
| 20260506100352 | 15 | 349 | 0.0 | 0.0 | 0.00 | 0.00 | 0.00 | 99 | 1014.0 |
| 20260506095850 | 15 | 351 | 0.0 | 0.0 | 0.00 | 0.00 | 0.00 | 98 | 1014.0 |
| 20260506095348 | 15 | 350 | 0.0 | 0.0 | 0.00 | 0.00 | 0.00 | 99 | 1014.0 |
| 20260506094844 | 16 | 350 | 0.0 | 0.0 | 0.00 | 0.00 | 0.00 | 99 | 1013.9 |
| 20260506094343 | 16 | 350 | 0.0 | 0.0 | 0.00 | 0.00 | 0.00 | 99 | 1013.7 |
| 20260506093840 | 16 | 352 | 0.0 | 0.0 | 0.00 | 0.00 | 0.00 | 98 | 1013.9 |
| 20260506093337 | 16 | 351 | 0.0 | 0.0 | 0.00 | 0.00 | 0.00 | 98 | 1013.8 |
| 20260506092835 | 16 | 350 | 0.0 | 0.0 | 0.00 | 0.00 | 0.00 | 98 | 1013.9 |
| 20260506092333 | 16 | 350 | 0.0 | 0.0 | 0.00 | 0.00 | 0.00 | 98 | 1013.9 |
| 20260506091829 | 16 | 350 | 0.0 | 0.0 | 0.00 | 0.00 | 0.00 | 98 | 1013.9 |
| 20260506091327 | 16 | 350 | 0.0 | 0.0 | 0.00 | 0.00 | 0.00 | 98 | 1014.1 |
| 20260506090825 | 16 | 351 | 0.0 | 0.0 | 0.00 | 0.00 | 0.00 | 98 | 1013.9 |
| 20260506090322 | 16 | 349 | 0.0 | 0.0 | 0.00 | 0.00 | 0.00 | 97 | 1014.0 |
| 20260506085818 | 16 | 350 | 0.0 | 0.0 | 0.00 | 0.00 | 0.00 | 97 | 1013.6 |
| 20260506085315 | 16 | 350 | 0.0 | 0.0 | 0.00 | 0.00 | 0.00 | 98 | 1013.9 |
| 20260506084811 | 16 | 351 | 0.0 | 0.0 | 0.00 | 0.00 | 0.00 | 97 | 1014.1 |
| 20260506084308 | 16 | 351 | 0.0 | 0.0 | 0.00 | 0.00 | 0.00 | 97 | 1014.1 |
| 20260506083805 | 16 | 350 | 0.0 | 0.0 | 0.00 | 0.00 | 0.00 | 97 | 1014.1 |
| 20260506083302 | 16 | 350 | 0.0 | 0.0 | 0.00 | 0.00 | 0.00 | 97 | 1014.0 |
| 20260506082759 | 16 | 350 | 0.0 | 0.0 | 0.00 | 0.00 | 0.00 | 97 | 1013.9 |
| 20260506082255 | 16 | 350 | 0.0 | 0.0 | 0.00 | 0.00 | 0.00 | 97 | 1014.2 |
| 20260506081753 | 16 | 350 | 0.0 | 0.0 | 0.00 | 0.00 | 0.00 | 97 | 1014.3 |
| 20260506081250 | 16 | 350 | 0.0 | 0.0 | 0.00 | 0.00 | 0.00 | 96 | 1014.5 |
| 20260506080748 | 16 | 351 | 0.0 | 0.0 | 0.00 | 0.00 | 0.00 | 96 | 1014.3 |
| 20260506080244 | 16 | 350 | 0.0 | 0.0 | 0.00 | 0.00 | 0.00 | 96 | 1014.2 |
| 20260506073228 | 16 | 354 | 0.0 | 0.0 | 0.00 | 0.00 | 0.00 | 95 | 1014.7 |
| 20260506072725 | 16 | 350 | 0.0 | 0.0 | 0.00 | 0.00 | 0.00 | 95 | 1014.5 |
| 20260506072223 | 16 | 350 | 0.0 | 0.0 | 0.00 | 0.00 | 0.00 | 94 | 1014.5 |
| 20260506071720 | 17 | 350 | 0.0 | 0.0 | 0.00 | 0.00 | 0.00 | 95 | 1014.5 |
| 20260506071218 | 17 | 349 | 0.0 | 0.0 | 0.00 | 0.00 | 0.00 | 94 | 1014.5 |
| 20260506070714 | 16 | 351 | 0.0 | 0.0 | 0.00 | 0.00 | 0.00 | 93 | 1014.5 |
| 20260506070212 | 17 | 349 | 0.0 | 0.0 | 0.00 | 0.00 | 0.00 | 93 | 1014.5 |
| 20260506062148 | 17 | 348 | 0.0 | 0.0 | 0.00 | 0.00 | 0.00 | 90 | 1014.5 |
| 20260506061644 | 17 | 350 | 0.0 | 0.0 | 0.00 | 0.00 | 0.00 | 90 | 1014.6 |
| 20260506061142 | 17 | 347 | 0.0 | 0.0 | 0.00 | 0.00 | 0.00 | 91 | 1014.7 |
| 20260506060640 | 17 | 300 | 0.0 | 0.0 | 0.00 | 0.00 | 0.00 | 92 | 1014.4 |
| 20260506060137 | 18 | 348 | 0.0 | 0.0 | 0.00 | 0.00 | 0.00 | 91 | 1014.3 |
| 20260506051109 | 18 | 347 | 0.0 | 0.0 | 0.00 | 0.00 | 0.00 | 86 | 1014.6 |
| 20260506050607 | 18 | 343 | 0.0 | 0.0 | 0.00 | 0.00 | 0.00 | 86 | 1014.7 |
| 20260506050104 | 19 | 355 | 0.0 | 0.0 | 0.00 | 0.00 | 0.00 | 83 | 1014.8 |
| 20260506045057 | 18 | 350 | 0.0 | 0.0 | 0.00 | 0.00 | 0.00 | 86 | 1015.1 |
| 20260506044556 | 17 | 347 | 0.0 | 0.0 | 0.00 | 0.00 | 0.00 | 87 | 1015.1 |
| 20260506044052 | 17 | 347 | 0.0 | 0.0 | 0.00 | 0.00 | 0.00 | 86 | 1015.0 |
| 20260506043549 | 17 | 349 | 0.0 | 0.0 | 0.00 | 0.00 | 0.00 | 85 | 1014.8 |
| 20260506043047 | 17 | 350 | 0.0 | 0.0 | 0.00 | 0.00 | 0.00 | 85 | 1014.8 |
| 20260506042546 | 17 | 346 | 0.0 | 0.0 | 0.00 | 0.00 | 0.00 | 86 | 1014.8 |
| 20260506042044 | 17 | 347 | 0.0 | 0.0 | 0.00 | 0.00 | 0.00 | 85 | 1014.5 |
| 20260506041542 | 17 | 347 | 0.0 | 0.0 | 0.00 | 0.00 | 0.00 | 84 | 1014.4 |
| 20260506041038 | 17 | 347 | 0.0 | 0.0 | 0.00 | 0.00 | 0.00 | 84 | 1014.8 |
| 20260506040536 | 17 | 346 | 0.0 | 0.0 | 0.00 | 0.00 | 0.00 | 83 | 1014.7 |
| 20260506040032 | 17 | 348 | 0.0 | 0.0 | 0.00 | 0.00 | 0.00 | 83 | 1014.7 |
| 20260506035529 | 17 | 347 | 0.0 | 0.0 | 0.00 | 0.00 | 0.00 | 82 | 1014.5 |
| 20260506035026 | 17 | 347 | 0.0 | 0.0 | 0.00 | 0.00 | 0.00 | 83 | 1015.0 |
| 20260506034524 | 17 | 344 | 0.0 | 0.0 | 0.00 | 0.00 | 0.00 | 83 | 1014.7 |
| 20260506034020 | 17 | 345 | 0.0 | 0.0 | 0.00 | 0.00 | 0.00 | 81 | 1014.7 |
| 20260506033518 | 17 | 345 | 0.0 | 0.0 | 0.00 | 0.00 | 0.00 | 81 | 1014.8 |
| 20260506033015 | 17 | 344 | 0.0 | 0.0 | 0.00 | 0.00 | 0.00 | 82 | 1014.8 |
| 20260506032512 | 17 | 352 | 0.0 | 0.0 | 0.00 | 0.00 | 0.00 | 81 | 1015.0 |
| 20260506032008 | 17 | 350 | 0.0 | 0.0 | 0.00 | 0.00 | 0.00 | 80 | 1015.0 |
| 20260506031506 | 17 | 344 | 0.0 | 0.0 | 0.00 | 0.00 | 0.00 | 81 | 1014.7 |
| 20260506031003 | 17 | 344 | 0.0 | 0.0 | 0.00 | 0.00 | 0.00 | 80 | 1014.8 |
| 20260506030501 | 17 | 343 | 0.0 | 0.0 | 0.00 | 0.00 | 0.00 | 80 | 1014.6 |
| 20260506025958 | 17 | 344 | 0.0 | 0.0 | 0.00 | 0.00 | 0.00 | 79 | 1014.4 |
| 20260506025455 | 17 | 344 | 0.0 | 0.0 | 0.00 | 0.00 | 0.00 | 80 | 1014.6 |
| 20260506024951 | 17 | 344 | 0.0 | 0.0 | 0.00 | 0.00 | 0.00 | 78 | 1014.4 |
| 20260506024448 | 17 | 343 | 0.0 | 0.0 | 0.00 | 0.00 | 0.00 | 79 | 1014.4 |
| 20260506023944 | 17 | 344 | 0.0 | 0.0 | 0.00 | 0.00 | 0.00 | 78 | 1014.4 |
| 20260506023441 | 18 | 344 | 0.0 | 0.0 | 0.00 | 0.00 | 0.00 | 76 | 1014.5 |
| 20260506022937 | 18 | 343 | 0.0 | 0.0 | 0.00 | 0.00 | 0.00 | 77 | 1014.6 |
| 20260506022435 | 18 | 344 | 0.0 | 0.0 | 0.00 | 0.00 | 0.00 | 78 | 1014.5 |
| 20260506021933 | 18 | 343 | 0.0 | 0.0 | 0.00 | 0.00 | 0.00 | 77 | 1014.8 |
| 20260506021430 | 18 | 344 | 0.0 | 0.0 | 0.00 | 0.00 | 0.00 | 77 | 1014.5 |
| 20260506020927 | 18 | 13 | 0.0 | 0.0 | 0.00 | 0.00 | 0.00 | 77 | 1014.3 |
| 20260506020425 | 18 | 15 | 0.0 | 0.0 | 0.00 | 0.00 | 0.00 | 76 | 1014.3 |
| 20260506015922 | 18 | 15 | 0.0 | 0.0 | 0.00 | 0.00 | 0.00 | 76 | 1014.6 |
| 20260506015419 | 18 | 12 | 0.0 | 0.0 | 0.00 | 0.00 | 0.00 | 76 | 1014.6 |
| 20260506014916 | 18 | 15 | 0.0 | 0.0 | 0.00 | 0.00 | 0.00 | 77 | 1014.7 |
| 20260506014413 | 18 | 8 | 0.0 | 0.0 | 0.00 | 0.00 | 0.00 | 76 | 1014.6 |
| 20260506013910 | 19 | 17 | 0.0 | 0.0 | 0.00 | 0.00 | 0.00 | 75 | 1014.3 |
| 20260506013408 | 19 | 18 | 0.0 | 0.0 | 0.00 | 0.00 | 0.00 | 75 | 1014.3 |
| 20260506012903 | 19 | 18 | 0.0 | 0.0 | 0.00 | 0.00 | 0.00 | 74 | 1014.2 |
| 20260506012400 | 19 | 14 | 0.0 | 0.0 | 0.00 | 0.00 | 0.00 | 73 | 1014.5 |
| 20260506011857 | 20 | 17 | 0.0 | 0.0 | 0.00 | 0.00 | 0.00 | 72 | 1014.2 |
| 20260506011354 | 20 | 12 | 0.0 | 0.0 | 0.00 | 0.00 | 0.00 | 73 | 1014.4 |
| 20260506010851 | 20 | 12 | 0.0 | 0.0 | 0.00 | 0.00 | 0.00 | 73 | 1014.3 |
| 20260506010350 | 20 | 17 | 0.0 | 1.6 | 0.00 | 0.00 | 0.00 | 73 | 1014.2 |
| 20260506005846 | 20 | 16 | 0.0 | 0.0 | 0.00 | 0.00 | 0.00 | 74 | 1014.3 |
| 20260506005343 | 20 | 15 | 0.0 | 0.0 | 0.00 | 0.00 | 0.00 | 72 | 1014.1 |
| 20260506004839 | 20 | 14 | 0.0 | 0.0 | 0.00 | 0.00 | 0.00 | 71 | 1014.4 |
| 20260506004337 | 20 | 17 | 0.0 | 0.0 | 0.00 | 0.00 | 0.00 | 71 | 1014.2 |
| 20260506003833 | 20 | 22 | 1.6 | 1.6 | 0.00 | 0.00 | 0.00 | 70 | 1014.1 |
| 20260506003329 | 21 | 15 | 0.0 | 0.0 | 0.00 | 0.00 | 0.00 | 68 | 1014.1 |
| 20260506002825 | 21 | 22 | 0.0 | 0.0 | 0.00 | 0.00 | 0.00 | 70 | 1014.2 |
| 20260506002322 | 21 | 22 | 0.0 | 0.0 | 0.00 | 0.00 | 0.00 | 68 | 1014.5 |
| 20260506001818 | 21 | 17 | 0.0 | 0.0 | 0.00 | 0.00 | 0.00 | 67 | 1014.3 |
| 20260506001315 | 21 | 17 | 0.0 | 0.0 | 0.00 | 0.00 | 0.00 | 67 | 1014.3 |
| 20260506000812 | 22 | 22 | 0.0 | 1.6 | 0.00 | 0.00 | 0.00 | 65 | 1014.3 |
| 20260506000310 | 22 | 20 | 0.0 | 1.6 | 0.00 | 0.00 | 0.00 | 64 | 1014.4 |
| 20260505235806 | 22 | 3 | 0.0 | 1.6 | 0.00 | 0.00 | 0.00 | 63 | 1014.3 |
| 20260505235305 | 22 | 36 | 1.6 | 1.6 | 0.00 | 0.00 | 0.00 | 62 | 1014.3 |
| 20260505234800 | 24 | 41 | 1.6 | 1.6 | 0.00 | 0.00 | 0.00 | 60 | 1014.4 |
| 20260505234258 | 24 | 28 | 0.0 | 0.0 | 0.00 | 0.00 | 0.00 | 60 | 1014.4 |
| 20260505233755 | 24 | 229 | 3.2 | 3.2 | 0.00 | 0.00 | 0.00 | 55 | 1014.4 |
| 20260505233253 | 25 | 133 | 1.6 | 1.6 | 0.00 | 0.00 | 0.00 | 55 | 1014.4 |
| 20260505232750 | 25 | 177 | 1.6 | 3.2 | 0.00 | 0.00 | 0.00 | 54 | 1014.1 |
| 20260505232247 | 25 | 232 | 3.2 | 3.2 | 0.00 | 0.00 | 0.00 | 51 | 1014.3 |
| 20260505231743 | 25 | 133 | 6.4 | 8.0 | 0.00 | 0.00 | 0.00 | 52 | 1014.3 |
| 20260505231243 | 25 | 215 | 1.6 | 3.2 | 0.00 | 0.00 | 0.00 | 49 | 1014.3 |
| 20260505230740 | 25 | 298 | 0.0 | 1.6 | 0.00 | 0.00 | 0.00 | 53 | 1014.3 |
| 20260505230237 | 25 | 191 | 3.2 | 3.2 | 0.00 | 0.00 | 0.00 | 53 | 1014.3 |
| 20260505225733 | 25 | 248 | 8.0 | 9.7 | 0.00 | 0.00 | 0.00 | 47 | 1014.3 |
| 20260505225231 | 25 | 203 | 8.0 | 9.7 | 0.00 | 0.00 | 0.00 | 49 | 1014.2 |
| 20260505224726 | 25 | 244 | 4.8 | 4.8 | 0.00 | 0.00 | 0.00 | 46 | 1014.4 |
| 20260505224224 | 25 | 244 | 8.0 | 9.7 | 0.00 | 0.00 | 0.00 | 45 | 1014.1 |
| 20260505223721 | 25 | 231 | 6.4 | 8.0 | 0.00 | 0.00 | 0.00 | 45 | 1014.0 |
| 20260505223217 | 25 | 221 | 8.0 | 9.7 | 0.00 | 0.00 | 0.00 | 48 | 1013.9 |
| 20260505222713 | 25 | 214 | 8.0 | 9.7 | 0.00 | 0.00 | 0.00 | 45 | 1013.9 |
| 20260505222209 | 25 | 177 | 4.8 | 4.8 | 0.00 | 0.00 | 0.00 | 49 | 1013.8 |
| 20260505221707 | 25 | 252 | 6.4 | 9.7 | 0.00 | 0.00 | 0.00 | 44 | 1013.8 |
| 20260505221203 | 25 | 200 | 6.4 | 9.7 | 0.00 | 0.00 | 0.00 | 44 | 1013.9 |
| 20260505220700 | 25 | 217 | 8.0 | 11.3 | 0.00 | 0.00 | 0.00 | 46 | 1013.8 |
| 20260505220158 | 26 | 242 | 6.4 | 8.0 | 0.00 | 0.00 | 0.00 | 42 | 1014.1 |
| 20260505215655 | 26 | 160 | 8.0 | 11.3 | 0.00 | 0.00 | 0.00 | 42 | 1013.9 |
| 20260505215153 | 26 | 179 | 9.7 | 11.3 | 0.00 | 0.00 | 0.00 | 40 | 1014.2 |
| 20260505214651 | 26 | 200 | 9.7 | 16.1 | 0.00 | 0.00 | 0.00 | 39 | 1013.9 |
| 20260505214148 | 26 | 198 | 8.0 | 9.7 | 0.00 | 0.00 | 0.00 | 44 | 1014.0 |
| 20260505213646 | 26 | 176 | 8.0 | 9.7 | 0.00 | 0.00 | 0.00 | 42 | 1014.0 |
| 20260505213142 | 25 | 238 | 6.4 | 8.0 | 0.00 | 0.00 | 0.00 | 41 | 1014.3 |
| 20260505212638 | 26 | 192 | 8.0 | 11.3 | 0.00 | 0.00 | 0.00 | 40 | 1014.2 |
| 20260505212136 | 25 | 180 | 6.4 | 8.0 | 0.00 | 0.00 | 0.00 | 46 | 1014.2 |
| 20260505211632 | 26 | 206 | 9.7 | 16.1 | 0.00 | 0.00 | 0.00 | 42 | 1014.0 |
| 20260505211130 | 25 | 265 | 6.4 | 9.7 | 0.00 | 0.00 | 0.00 | 45 | 1014.3 |
| 20260505210626 | 25 | 98 | 3.2 | 3.2 | 0.00 | 0.00 | 0.00 | 46 | 1014.4 |
| 20260505210123 | 25 | 227 | 4.8 | 4.8 | 0.00 | 0.00 | 0.00 | 48 | 1014.2 |
| 20260505205621 | 25 | 199 | 6.4 | 8.0 | 0.00 | 0.00 | 0.00 | 45 | 1014.3 |
| 20260505205119 | 25 | 194 | 9.7 | 14.5 | 0.00 | 0.00 | 0.00 | 42 | 1014.3 |
| 20260505204615 | 25 | 184 | 4.8 | 4.8 | 0.00 | 0.00 | 0.00 | 46 | 1014.4 |
| 20260505204113 | 26 | 167 | 11.3 | 14.5 | 0.00 | 0.00 | 0.00 | 45 | 1014.1 |
| 20260505203609 | 25 | 183 | 6.4 | 8.0 | 0.00 | 0.00 | 0.00 | 47 | 1014.2 |
| 20260505203107 | 25 | 163 | 8.0 | 11.3 | 0.00 | 0.00 | 0.00 | 44 | 1014.5 |
| 20260505202602 | 25 | 153 | 9.7 | 12.9 | 0.00 | 0.00 | 0.00 | 47 | 1014.5 |
| 20260505202058 | 25 | 240 | 4.8 | 4.8 | 0.00 | 0.00 | 0.00 | 49 | 1014.4 |
| 20260505201555 | 25 | 152 | 9.7 | 11.3 | 0.00 | 0.00 | 0.00 | 48 | 1014.5 |
| 20260505201053 | 25 | 163 | 11.3 | 14.5 | 0.00 | 0.00 | 0.00 | 48 | 1014.6 |
| 20260505200551 | 25 | 145 | 6.4 | 11.3 | 0.00 | 0.00 | 0.00 | 48 | 1014.8 |
| 20260505200047 | 25 | 242 | 14.5 | 16.1 | 0.00 | 0.00 | 0.00 | 49 | 1014.8 |
| 20260505195543 | 25 | 203 | 4.8 | 4.8 | 0.00 | 0.00 | 0.00 | 49 | 1014.8 |
| 20260505195041 | 25 | 221 | 3.2 | 3.2 | 0.00 | 0.00 | 0.00 | 50 | 1015.1 |
| 20260505194538 | 24 | 166 | 6.4 | 9.7 | 0.00 | 0.00 | 0.00 | 47 | 1015.1 |
| 20260505194033 | 25 | 192 | 9.7 | 11.3 | 0.00 | 0.00 | 0.00 | 49 | 1015.2 |
| 20260505193531 | 24 | 183 | 4.8 | 4.8 | 0.00 | 0.00 | 0.00 | 45 | 1015.2 |
| 20260505193028 | 25 | 202 | 9.7 | 11.3 | 0.00 | 0.00 | 0.00 | 46 | 1015.5 |
| 20260505192526 | 25 | 163 | 11.3 | 12.9 | 0.00 | 0.00 | 0.00 | 48 | 1015.1 |
| 20260505192024 | 25 | 193 | 4.8 | 4.8 | 0.00 | 0.00 | 0.00 | 47 | 1015.4 |
| 20260505191522 | 24 | 165 | 4.8 | 8.0 | 0.00 | 0.00 | 0.00 | 47 | 1015.2 |
| 20260505191020 | 24 | 223 | 6.4 | 8.0 | 0.00 | 0.00 | 0.00 | 48 | 1015.4 |
| 20260505190514 | 24 | 240 | 8.0 | 9.7 | 0.00 | 0.00 | 0.00 | 46 | 1015.5 |
| 20260505190010 | 24 | 332 | 3.2 | 3.2 | 0.00 | 0.00 | 0.00 | 46 | 1015.5 |
| 20260505185507 | 23 | 172 | 8.0 | 9.7 | 0.00 | 0.00 | 0.00 | 47 | 1015.6 |
| 20260505185003 | 24 | 135 | 8.0 | 9.7 | 0.00 | 0.00 | 0.00 | 47 | 1015.8 |
| 20260505180927 | 23 | 212 | 9.7 | 12.9 | 0.00 | 0.00 | 0.00 | 53 | 1016.4 |
| 20260505180423 | 23 | 212 | 9.7 | 12.9 | 0.00 | 0.00 | 0.00 | 53 | 1016.4 |
| 20260505175920 | 23 | 233 | 9.7 | 14.5 | 0.00 | 0.00 | 0.00 | 50 | 1016.5 |
| 20260505175416 | 23 | 240 | 12.9 | 14.5 | 0.00 | 0.00 | 0.00 | 49 | 1016.5 |
| 20260505174912 | 23 | 166 | 11.3 | 14.5 | 0.00 | 0.00 | 0.00 | 50 | 1016.7 |
| 20260505174410 | 23 | 195 | 12.9 | 14.5 | 0.00 | 0.00 | 0.00 | 49 | 1016.6 |
| 20260505173906 | 23 | 145 | 12.9 | 14.5 | 0.00 | 0.00 | 0.00 | 49 | 1016.9 |
| 20260505173403 | 23 | 145 | 12.9 | 14.5 | 0.00 | 0.00 | 0.00 | 49 | 1016.9 |
| 20260505172859 | 23 | 158 | 12.9 | 14.5 | 0.00 | 0.00 | 0.00 | 51 | 1016.6 |
| 20260505172357 | 22 | 147 | 4.8 | 4.8 | 0.00 | 0.00 | 0.00 | 51 | 1016.4 |
| 20260505171856 | 22 | 245 | 1.6 | 1.6 | 0.00 | 0.00 | 0.00 | 57 | 1016.5 |
| 20260505171353 | 22 | 167 | 9.7 | 12.9 | 0.00 | 0.00 | 0.00 | 53 | 1016.6 |
| 20260505170850 | 22 | 163 | 11.3 | 12.9 | 0.00 | 0.00 | 0.00 | 52 | 1016.5 |
| 20260505170347 | 22 | 301 | 4.8 | 8.0 | 0.00 | 0.00 | 0.00 | 54 | 1016.7 |
| 20260505165842 | 22 | 248 | 4.8 | 4.8 | 0.00 | 0.00 | 0.00 | 54 | 1016.7 |
| 20260505165338 | 22 | 251 | 8.0 | 9.7 | 0.00 | 0.00 | 0.00 | 53 | 1016.9 |
| 20260505164834 | 22 | 205 | 11.3 | 12.9 | 0.00 | 0.00 | 0.00 | 53 | 1017.0 |
| 20260505164331 | 22 | 176 | 9.7 | 12.9 | 0.00 | 0.00 | 0.00 | 57 | 1017.2 |
| 20260505163829 | 22 | 358 | 1.6 | 1.6 | 0.00 | 0.00 | 0.00 | 55 | 1016.9 |
| 20260505163327 | 22 | 228 | 6.4 | 8.0 | 0.00 | 0.00 | 0.00 | 57 | 1017.0 |
| 20260505162825 | 22 | 185 | 12.9 | 20.9 | 0.00 | 0.00 | 0.00 | 60 | 1016.9 |
| 20260505162321 | 22 | 181 | 8.0 | 9.7 | 0.00 | 0.00 | 0.00 | 54 | 1017.0 |
| 20260505161819 | 22 | 176 | 11.3 | 16.1 | 0.00 | 0.00 | 0.00 | 55 | 1017.2 |
| 20260505161316 | 21 | 286 | 0.0 | 1.6 | 0.00 | 0.00 | 0.00 | 55 | 1017.1 |
| 20260505160813 | 22 | 216 | 16.1 | 20.9 | 0.00 | 0.00 | 0.00 | 59 | 1017.0 |
| 20260505160311 | 21 | 145 | 11.3 | 12.9 | 0.00 | 0.00 | 0.00 | 57 | 1017.1 |
| 20260505153250 | 21 | 285 | 6.4 | 8.0 | 0.00 | 0.00 | 0.00 | 59 | 1017.5 |
| 20260505152747 | 21 | 308 | 6.4 | 9.7 | 0.00 | 0.00 | 0.00 | 58 | 1017.6 |
| 20260505152243 | 21 | 157 | 4.8 | 4.8 | 0.00 | 0.00 | 0.00 | 58 | 1017.6 |
| 20260505151738 | 21 | 211 | 3.2 | 4.8 | 0.00 | 0.00 | 0.00 | 59 | 1017.5 |
| 20260505151236 | 21 | 228 | 3.2 | 3.2 | 0.00 | 0.00 | 0.00 | 60 | 1017.7 |
| 20260505150732 | 21 | 248 | 6.4 | 8.0 | 0.00 | 0.00 | 0.00 | 59 | 1017.8 |
| 20260505150230 | 20 | 351 | 0.0 | 0.0 | 0.00 | 0.00 | 0.00 | 61 | 1017.7 |
| 20260505140159 | 18 | 222 | 6.4 | 8.0 | 0.00 | 0.00 | 0.00 | 69 | 1017.5 |